Thursday, May 24, 2018, 5:42 PM GMT
Back to Local

CWSS, St. Stephen, N. B.

Location: , , Canada Lat: 45.217
Local Time: 5:42 PM GMT (17:42 GMT) Lon: -67.25
Time Zone: GMT Elev: 85 ft

Show me the last for .
Show Coded

Time T Td Feel RH Dir Speed Gust Alt SLP Vis Weather Sky Remarks
2018-05-24 17:00 59 28 - 30 200° 3 - - 30.07 0 None
2018-05-24 16:00 58 29 - 32 10° 2 - - 30.09 0 None
2018-05-24 15:00 54 32 - 42 290° 2 - - 30.10 0 None
2018-05-24 14:00 52 39 - 62 120° 2 - - 30.11 0 None
2018-05-24 13:00 46 40 - 77 160° 1 - - 30.13 0 None
2018-05-24 12:00 42 39 - 89 250° 1 - - 30.12 0 None
2018-05-24 11:00 39 38 - 96 60° 1 - - 30.11 0 None
2018-05-24 10:00 35 34 - 97 100° 2 - - 30.08 0 None
2018-05-24 09:00 33 32 - 93 260° 1 - - 30.05 0 None
2018-05-24 08:00 34 33 - 96 300° 1 - - 30.03 0 None
2018-05-24 07:00 33 32 - 93 - Calm - - 30.02 0 None
2018-05-24 06:00 34 33 - 96 360° 1 - - 30.01 0 None
2018-05-24 05:00 35 33 - 95 10° 1 - - 30.02 0 None
2018-05-24 04:00 36 34 - 95 - Calm - - 30.01 0 None
2018-05-24 03:00 38 36 - 91 - Calm - - 30.02 0 None
2018-05-24 02:00 42 38 40 86 40° 3 - - 30.02 0 None
2018-05-24 01:00 44 39 41 82 10° 6 - - 30.01 0 None
2018-05-24 00:00 46 42 39 84 360° 12 18 - 29.97 0 None
2018-05-23 23:00 51 45 - 80 40° 9 - - 29.93 0 None
2018-05-23 22:00 54 47 - 78 30° 7 - - 29.89 0 None
2018-05-23 21:00 55 49 - 79 30° 7 - - 29.88 0 None
2018-05-23 20:00 54 48 - 80 340° 3 - - 29.85 0 None
2018-05-23 19:00 55 48 - 77 20° 9 - - 29.83 0 Peak wind: 21 mph (19 kts) from 330° at 13 min
1-hr Precip Total: 0.01"
2018-05-23 18:00 56 49 - 78 360° 13 24 - 29.83 0 Peak wind: 28 mph (25 kts) from 350° at 15 min
1-hr Precip Total: 0.05"

Support USWX by starting your Amazon purchase here.